{"data":{"norad_id":60141,"intl_designator":"2024-120G","name":"STARLINK-32036","alt_names":[],"object_type":"PAYLOAD","status":"ACTIVE","operator":null,"country":"US","launch_date":"2024-06-27","launch_site_code":"AFETR","launch_vehicle":null,"mission":null,"orbit_class":"UNKNOWN","rcs_meters":null,"size_class":null,"mass_kg":null,"dimensions":null,"purposes":["comms"],"wikipedia_slug":null,"has_3d_model":false,"image_url":null,"decayed_at":null,"tle_current":{"epoch":"2026-09-21T20:27:29.033568Z","epoch_age_seconds":64629,"freshness":"FRESH","line1":"1 60141U 24120G   26264.85241937 -.00000018  00000+0  10606-4 0  9996","line2":"2 60141  53.1607 125.6428 0001391  88.7456 271.3706 15.34389815126536","mean_motion":15.34389815,"eccentricity":0.0001391,"inclination_deg":53.1607,"raan_deg":125.6428,"arg_perigee_deg":88.7456,"mean_anomaly_deg":271.3706,"bstar":1.0606e-5,"rev_number":12653,"period_min":93.848381025652,"perigee_km":461.78194725268,"apogee_km":463.68507742921,"semimajor_km":6840.8705123409,"source":"CELESTRAK","updated_at":"2026-09-22T09:00:49.177284Z"}}}